Regional Weather Roundup
Issued by NWS Albany, NY

Home | Current Version | Previous Version | Text Only | Print | Product List | Glossary On
Versions: 1 2 3 4 5 6 7 8 9 10 11 12 13 14 15 16 17 18 19 20 21 22 23 24 25 26 27 28 29 30 31 32 33 34 35 36 37 38 39 40 41 42 43 44 45 46 47 48 49 50
000
ASUS41 KALY 010710
RWRALY

NEW YORK STATE HOURLY WEATHER ROUNDUP
NATIONAL WEATHER SERVICE ALBANY NY
300 AM EDT MON SEP 01 2014

NOTE: "FAIR" INDICATES FEW OR NO CLOUDS BELOW 12,000 FEET WITH NO
SIGNIFICANT WEATHER AND/OR NO OBSTRUCTIONS TO VISIBILITY.

NYZ032-033-038>043-046>054-057>066-NYZ062>081-010800-
EAST


CITY           SKY/WX    TMP DP  RH WIND       PRES   REMARKS
ALBANY         FOG       71  69  93 CALM      29.98R VSB 3/4
GLENS FALLS    FOG       67  66  97 S3        29.96S VSB 1/4
POUGHKEEPSIE   MOCLDY    73  70  90 SW6       29.97S
MONTGOMERY     FOG       67  66  97 CALM      29.99F VSB 1/4
WHITE PLAINS   MOCLDY    73  72  96 CALM      29.99F FOG
ISLIP          MOCLDY    74  71  91 SW7       29.97F
NEW YORK CITY  MOCLDY    76  70  82 SW8       29.98F
CENTRAL PARK   MOCLDY    77  71  82 VRB6      30.01F
$$

NYZ005>009-017-018-044>046-055-056-010800-
CENTRAL


CITY           SKY/WX    TMP DP  RH WIND       PRES   REMARKS
FULTON         CLOUDY    69  66  90 SW6       29.97R
SYRACUSE       PTCLDY    69  66  90 CALM      29.97R
ROME           CLOUDY    68  68 100 CALM      29.99R
ELMIRA         FOG       67  67 100 CALM      30.00S VSB 1/4
BINGHAMTON     CLOUDY    68  67  96 SW3       30.03S
MONTICELLO     PTCLDY    64  64 100 CALM      30.05S
$$

NYZ026>034-041>043-010800-
NORTH


CITY           SKY/WX    TMP DP  RH WIND       PRES   REMARKS
WATERTOWN      CLOUDY    71  66  84 SW7       29.94R
FORT DRUM      NOT AVBL
MASSENA        PTCLDY    67  67 100 SW6       29.92S FOG
SARANAC LAKE   CLOUDY    65  64  97 SW5       29.97R
PLATTSBURGH    MOCLDY    67  67 100 CALM      29.92R FOG
$$

NYZ001>004-010>016-019>021-010800-
WEST


CITY           SKY/WX    TMP DP  RH WIND       PRES   REMARKS
NIAGARA FALLS  CLEAR     69  67  93 S6        29.96S FOG
BUFFALO        PTCLDY    68  66  93 S3        29.98S
DUNKIRK        CLEAR     70  67  90 S8        29.98S
JAMESTOWN      CLOUDY    66  66 100 S5        30.03F
WELLSVILLE     MOCLDY    68  65  90 W3        30.06S
ROCHESTER      CLEAR     67  66  97 SW5       29.98R
PENN YAN       CLEAR     68  66  93 SW6       30.00R
$$

             KEY
       WCI = WIND CHILL INDEX
       VSB = VISIBILITY
       HX  = HEAT INDEX
$$



USA.gov is the U.S. government's official web portal to all federal, state and local government web resources and services.